#timestamp,LO_Frequency,Hit,StdDev 
1594206015.8,286047002.0,N
1594206035.7,286047002.1,N
1594206055.5,286047002.2,N
1594206075.3,286047002.1,N
1594206095.2,286047002.1,N
1594206115.0,286047001.5,N
1594206115.9,286047001.5,N
1594206135.8,286047000.0,N
1594206155.6,286047000.7,N
1594206175.5,286047001.0,N
1594206195.3,286047000.4,N
1594206215.1,286047000.7,N
1594206235.9,286047000.8,N
1594206255.7,286047000.7,N
1594206275.6,286047000.9,N
1594206295.4,286047000.7,N
1594206315.2,286046998.5,N
1594206335.1,286046998.6,N
1594206336.0,286046998.6,N
1594206355.8,286046998.5,N
1594206375.7,286046999.3,N
1594206395.5,286046998.7,N
1594206415.3,286046998.7,N
1594206435.2,286046996.5,Y
1594206455.0,286046999.5,P
1594206455.9,286046999.5,N
1594206475.8,286046997.7,P
1594206495.6,286046996.5,Y
1594206515.4,286046996.7,P
1594206535.3,286046998.8,N
1594206555.1,286046999.6,N
1594206575.9,286046998.6,N
1594206595.7,286046999.2,N
1594206615.5,286046999.4,N
1594206635.4,286046997.0,Y
1594206655.2,286047001.2,P
1594206675.1,286046998.8,N
1594206676.0,286046998.8,N
1594206695.8,286046998.8,N
1594206715.7,286046998.5,N
1594206735.5,286046998.7,N
1594206755.3,286047000.0,N
1594206775.2,286046999.3,N
1594206795.0,286047001.2,N
1594206795.9,286047001.2,N
1594206815.8,286046999.0,N
1594206835.6,286046998.3,N
1594206855.4,286046999.9,N
1594206875.3,286047001.2,N
1594206895.1,286046999.9,N
1594206915.8,286046999.8,N
1594206935.7,286047001.6,N
1594206955.5,286047001.9,N
1594206975.4,286047004.2,Y
1594206995.2,286047003.4,P
1594207015.0,286047005.8,P
1594207015.9,286047005.8,N
1594207035.8,286047005.6,N
1594207055.6,286047005.8,N
1594207075.5,286047002.9,N
1594207095.3,286047004.8,N
1594207115.1,286047006.0,Y
1594207135.9,286046999.6,P
1594207155.7,286046996.9,N
1594207175.5,286046997.2,N
1594207195.4,286046997.4,N
1594207215.2,286046996.7,N
1594207235.1,286046999.6,N
1594207236.0,286046999.6,N
1594207255.8,286046999.3,N
1594207275.6,286046999.2,N
1594207295.5,286046999.4,N
1594207315.3,286046998.8,N
1594207335.2,286046998.3,N
1594207385.9,286046998.6,E
1594207395.8,286046998.5,N
1594207415.7,286046999.9,P
1594207435.5,286047000.4,N
1594207455.3,286047000.4,N
1594207475.2,286047001.0,N
1594207495.0,286046999.9,N
1594207495.9,286046999.9,N
1594207515.8,286047000.5,N
1594207535.6,286047000.4,N
1594207555.4,286046999.8,N
1594207575.3,286047002.8,Y
1594207595.1,286047000.0,P
1594207615.8,286047000.1,N
1594207635.7,286047002.3,P
1594207655.5,286047001.9,N
1594207675.4,286046999.7,N
1594207695.2,286047000.4,N
1594207715.0,286046999.9,N
1594207715.9,286046999.9,N
1594207735.8,286046999.9,N
1594207755.6,286047000.5,N
1594207775.5,286046998.8,N
1594207795.3,286046998.5,N
1594207815.1,286046998.6,N
1594207835.9,286047000.7,N
1594207855.7,286047001.0,N
1594207875.2,286046998.3,N
1594207895.0,286047000.9,N
1594207895.9,286047000.9,N
1594207915.8,286047000.6,N
1594207935.6,286047000.4,N
1594207955.4,286047000.2,N
1594207975.3,286047000.6,N
1594207995.1,286047000.5,N
1594208015.9,286047001.0,N
1594208035.7,286046998.7,N
1594208055.5,286046998.4,N
1594208075.4,286046998.2,N
1594208095.2,286046999.3,N
1594208115.0,286046998.6,N
1594208116.0,286046998.6,N
1594208135.8,286047001.1,N
1594208155.6,286047000.7,N
1594208175.5,286047001.0,N
1594208195.3,286047001.1,N
1594208215.1,286047000.8,N
1594208235.9,286047001.2,N
1594208255.7,286047000.5,N
1594208275.6,286046998.1,N
1594208295.4,286046998.3,N
1594208315.2,286046998.2,N
1594208335.1,286047000.6,N
1594208336.0,286047000.6,N
1594208355.8,286047000.7,N
1594208375.7,286046998.2,N
1594208395.5,286046998.3,N
1594208415.3,286046998.5,N
1594208435.2,286047001.0,N
1594208455.0,286046998.1,N
1594208455.9,286046998.1,N
1594208475.7,286047000.4,N
1594208495.6,286047000.9,N
1594208515.4,286046998.2,N
1594208535.3,286046998.8,N
1594208555.1,286046998.6,N
1594208575.8,286046998.5,N
1594208595.7,286047000.7,N
1594208615.5,286046998.6,N
1594208635.4,286047000.7,N
1594208655.2,286047000.6,N
1594208675.0,286047000.7,N
1594208675.9,286047000.7,N
1594208695.8,286047000.5,N
1594208715.6,286046999.9,N
1594208735.4,286047000.9,N
1594208755.3,286047000.3,N
1594208775.1,286046999.7,N
1594208795.9,286047000.2,N
1594208815.7,286047000.1,N
1594208835.5,286046999.7,N
1594208855.4,286047002.5,N
1594208875.2,286047002.4,N
1594208895.1,286047002.5,N
1594208896.0,286047002.5,N
1594208915.8,286047002.3,N
1594208935.6,286047001.4,N
1594208955.5,286047004.0,N
1594208975.3,286047003.2,N
1594208995.2,286047004.3,N
1594209015.9,286047002.6,N
1594209035.7,286047002.0,N
1594209055.6,286047002.2,N
1594209075.4,286047002.3,N
1594209095.2,286046999.8,N
1594209115.1,286047000.5,N
1594209116.0,286047000.5,N
1594209135.8,286047000.2,N
1594209155.7,286046999.8,N
1594209175.5,286047000.0,N
1594209195.3,286047000.0,N
1594209215.2,286046999.7,N
1594209235.0,286047002.1,N
1594209235.9,286047002.1,N
1594209255.8,286047002.2,N
1594209275.6,286047002.4,N
1594209295.4,286047000.2,N
1594209315.3,286047000.1,N
1594209335.1,286047001.0,N
1594209355.9,286046998.2,N
1594209375.7,286046998.4,N
1594209395.5,286046998.3,N
1594209415.4,286047001.1,N
1594209435.2,286047000.8,N
1594209455.0,286046999.0,N
1594209455.9,286046999.0,N
1594209475.8,286046998.5,N
1594209495.6,286046999.2,N
1594209515.5,286046998.8,N
1594209535.3,286046999.3,N
1594209555.1,286046999.0,N
1594209575.9,286046999.1,N
1594209595.7,286046999.6,N
